Вернуться в каталог

STARLINK-34893

АктивенСвязьVLEO
NORAD 65752·PAYLOAD·🇺🇸 United States

Запущен Sep 25, 2025 с Cape Canaveral Space Force Station

Loading…

Ближайшие Пролёты (ближайшие 24 часа)

TLE

СвежийSource: CelesTrak SupGP

Эпоха: Sep 14, 2026, 22:30 UTC

1 65752C 25216U   26257.93798611 -.00045225  00000+0 -13357-2 0  2574
2 65752  53.1568 171.8348 0001193  79.0408  36.6292 15.34424829    10

Отслеживайте STARLINK-34893 в реальном времени с AllMySat

Download on the App Store